Weather in Kryukovo

Russia / Yaroslavl Oblast     57°50′04″N   38°14′59″E
temp.,
°C
wind,
m/s
gust,
m/s
humid.,
%
clouds,
%
prec.,
mm/h
press.,
hPa
HPBL,
m
25 october, mon
mon2500:00−1nw510899 0.0 1023432
03:00−2nw48905 0.0 1025260
06:00−2wnw368876 0.0 1026219
09:00−1wsw3573100 0.0 1027333
12:00+1sw5763100 0.0 1026667
15:00+2sw6126998 0.0 1024702
18:00+2sw7147197 0.0 1022708
21:00+2sw71578100 0.0 1021579
26 october, tue
tue2600:00+1wsw6148695 0.0 1020528
03:00+2wsw61285100 0.0 1019438
06:000sw51292100 0.0 1019373
09:00+1sw5118697 0.0 1019411
12:00+4sw61072100 0.0 1018518
15:00+4sw51173100 0.0 1016528
18:00+2sw51282100 0.0 1016337
21:00+2sw51184100 0.0 1016315
27 october, wed
wed2700:00+1sw41086100 0.0 1016283
03:000sw51088100 0.0 1015276
06:000sw51190100 0.0 1014290
09:00+1sw51286100 0.0 1013385
12:00+4sw61380100 0.0 1011509
15:00+4sw71492100 1.6 1010666
18:00+5wsw71491100 0.8 1011824
21:00+6w71383100 0.9 1011873
28 october, thu
thu2800:00+6w6138683 0.1 1012653
03:00+6w51183100 0.1 1013617
06:00+5sw4890100 0.0 1014285
09:00+4sw3694100 0.1 1014233
12:00+5ssw3795100 0.3 1013313
15:00+5ssw2698100 1.1 1012286
18:00+5wsw1299100 1.0 101387
21:00+5n2598100 1.3 1015254
29 october, fri
fri2900:00+5ne4794100 0.0 1018439
03:00+4ne3690100 0.0 1021326
06:00+1ene469099 0.0 1024283
09:00−1e467692 0.0 1026309
12:00+1ese4563100 0.0 1027426
15:00+2se456273 0.0 1028443
18:00+1se487399 0.0 1028252
21:00+1sse41084100 0.8 1027316